FW2418 Weather Reports


time (UTC)temp
C
wind
direction
speed
KPH
gust
KPH
rain 1hr
cm
rain 24hr
cm
rain mn
cm
humidity
%
barometer
mb
20260503221904 23 75 1.6 12.9 0.00 0.18 0.03 64 1014.3
20260503220903 23 47 1.6 11.3 0.00 0.18 0.03 63 1014.0
20260503215902 23 47 6.4 12.9 0.00 0.18 0.03 62 1014.0
20260503214901 23 60 3.2 11.3 0.00 0.18 0.03 60 1014.0
20260503213829 23 82 3.2 9.7 0.00 0.18 0.03 61 1013.6
20260503212828 24 20 4.8 9.7 0.00 0.18 0.03 58 1014.0
20260503211828 24 48 3.2 11.3 0.00 0.18 0.03 59 1014.0
20260503210827 24 76 4.8 12.9 0.00 0.18 0.03 58 1014.0
20260503205826 24 53 4.8 12.9 0.00 0.18 0.03 57 1014.0
20260503204825 24 53 4.8 14.5 0.00 0.18 0.03 57 1014.0
20260503203824 24 56 3.2 14.5 0.00 0.20 0.03 58 1014.0
20260503202823 23 45 3.2 14.5 0.00 0.25 0.03 58 1014.0
20260503201823 24 5 4.8 12.9 0.00 0.30 0.03 57 1014.3
20260503200821 24 49 3.2 14.5 0.00 0.30 0.03 58 1014.0
20260503195820 24 11 6.4 12.9 0.00 0.30 0.03 58 1014.3
20260503194820 25 4 4.8 11.3 0.00 0.33 0.03 58 1014.3
20260503193818 25 27 3.2 12.9 0.00 0.33 0.03 58 1014.6
20260503192817 25 41 4.8 14.5 0.00 0.33 0.03 58 1014.6
20260503191816 25 17 4.8 14.5 0.00 0.38 0.03 57 1015.0
20260503190815 25 86 3.2 11.3 0.00 0.48 0.03 57 1015.3
20260503185814 25 48 6.4 12.9 0.00 0.66 0.03 58 1015.0
20260503184813 24 359 3.2 16.1 0.00 0.66 0.03 60 1015.3
20260503183812 24 7 4.8 17.7 0.00 0.66 0.03 60 1015.3
20260503182812 25 33 4.8 11.3 0.00 0.66 0.03 58 1015.3
20260503181810 25 59 3.2 11.3 0.00 0.66 0.03 57 1015.3
20260503180809 25 27 4.8 14.5 0.00 0.66 0.03 59 1015.7
20260503175808 25 40 6.4 16.1 0.00 0.66 0.03 57 1015.7
20260503174808 24 22 4.8 16.1 0.00 0.66 0.03 59 1015.7
20260503173735 24 16 6.4 14.5 0.00 0.66 0.03 59 1015.7
20260503172734 23 38 4.8 17.7 0.00 0.66 0.03 63 1016.0
20260503171702 23 43 8.0 20.9 0.00 0.66 0.03 63 1016.0
20260503170701 23 14 8.0 19.3 0.00 0.66 0.03 65 1016.0
20260503150517 22 19 9.7 27.4 0.00 0.66 0.03 74 1016.0
20260503131333 19 32 3.2 16.1 0.00 0.66 0.03 89 1015.0
20260503130332 18 22 4.8 12.9 0.00 0.66 0.03 91 1015.3
20260503110148 16 45 1.6 6.4 0.00 0.66 0.03 96 1013.9
20260503100111 16 304 1.6 3.2 0.00 0.66 0.03 97 1013.6
20260503080958 16 33 1.6 4.8 0.00 0.66 0.03 97 1012.6
20260503072923 17 327 0.0 1.6 0.00 0.66 0.03 97 1012.6
20260503071922 17 319 0.0 3.2 0.00 0.66 0.03 97 1012.6
20260503070849 17 351 1.6 4.8 0.00 0.66 0.03 97 1012.6
20260503054708 17 315 0.0 1.6 0.00 0.64 0.00 97 1013.0
20260503053636 17 13 0.0 0.0 0.00 0.64 0.00 97 1013.0
20260503052635 17 315 0.0 0.0 0.00 0.64 0.00 97 1013.0
20260503051603 17 315 0.0 1.6 0.00 0.64 0.00 97 1013.0
20260503050602 17 315 0.0 3.2 0.00 0.64 0.00 97 1013.0
20260503045601 17 316 0.0 3.2 0.00 0.64 0.00 97 1012.6
20260503044600 17 27 1.6 4.8 0.03 0.64 0.00 97 1012.6
20260503043559 17 294 0.0 6.4 0.05 0.64 0.00 97 1012.3
20260503042527 17 358 0.0 14.5 0.05 0.64 0.00 97 1012.0
20260503041526 17 5 1.6 16.1 0.10 0.64 0.00 97 1012.0
20260503040525 18 17 4.8 16.1 0.10 0.64 0.00 97 1012.0
20260503035453 18 17 4.8 11.3 0.13 0.64 0.64 97 1012.0
20260503034452 18 356 3.2 6.4 0.10 0.61 0.61 97 1011.6
20260503033451 18 339 3.2 9.7 0.08 0.58 0.58 97 1011.6
20260503032450 19 358 3.2 8.0 0.08 0.58 0.58 97 1011.3
20260503031449 19 313 1.6 3.2 0.05 0.53 0.53 97 1011.3
20260503030448 19 32 0.0 1.6 0.05 0.53 0.53 97 1010.9
20260503025446 19 34 1.6 4.8 0.03 0.51 0.51 97 1010.9
20260503024446 19 356 0.0 8.0 0.03 0.51 0.51 96 1010.9
20260503023445 20 40 1.6 12.9 0.03 0.51 0.51 96 1010.6
20260503022444 20 8 3.2 14.5 0.03 0.51 0.51 95 1010.3
20260503021443 20 13 4.8 11.3 0.00 0.48 0.48 96 1009.9
20260503020442 20 311 0.0 1.6 0.00 0.48 0.48 96 1009.6
20260503015441 20 356 0.0 0.0 0.00 0.48 0.48 96 1009.6
20260503014409 20 359 0.0 0.0 0.00 0.48 0.48 96 1009.2
20260503013407 20 359 0.0 0.0 0.00 0.48 0.48 96 1009.2
20260503012406 20 356 0.0 1.6 0.00 0.48 0.48 96 1009.2
20260503011405 20 358 0.0 1.6 0.00 0.48 0.48 96 1008.9
20260503010404 20 304 0.0 1.6 0.00 0.48 0.48 96 1008.9
20260503005332 20 304 0.0 0.0 0.00 0.48 0.48 96 1008.9
20260503004331 21 303 0.0 1.6 0.00 0.48 0.48 96 1008.6
20260503003330 21 303 0.0 1.6 0.00 0.48 0.48 95 1008.6
20260503002329 21 303 0.0 1.6 0.00 0.48 0.48 95 1008.6
20260503001257 21 267 1.6 1.6 0.00 0.48 0.48 95 1008.2
20260503000256 21 261 1.6 1.6 0.00 0.48 0.48 94 1008.2
20260502235255 21 278 0.0 4.8 0.00 0.48 0.48 94 1007.9
20260502234254 21 256 1.6 4.8 0.00 0.48 0.48 94 1007.9
20260502233253 21 229 1.6 6.4 0.00 0.48 0.48 95 1007.9
20260502232252 21 241 1.6 6.4 0.00 0.48 0.48 95 1007.9
20260502231252 21 260 1.6 3.2 0.00 0.48 0.48 95 1007.9
20260502230251 21 236 1.6 3.2 0.00 0.48 0.48 95 1007.9
20260502225250 21 283 1.6 3.2 0.00 0.48 0.48 95 1007.9
20260502224249 21 273 1.6 4.8 0.00 0.48 0.48 95 1007.5
20260502223248 21 272 1.6 4.8 0.00 0.48 0.48 95 1007.5